Location: Góry Miechowskie
(50.3599°N, 20.1803°E)
Time: 04:30:32
(UTC+00:00)

SR - Pass Details

Date: 16 September 2024
Orbit: 578 x 855 km, 66.7° (Epoch: 04 October)

Event Time Altitude Azimuth Distance (km) Brightness Sun altitude
Rises 21:06:35 0° 313° (NW) 2,946 ? -34.2°
Reaches altitude 10° 21:09:11 10° 299° (WNW) 2,076 ? -34.4°
Enters shadow 21:10:29 16° 286° (WNW) 1,730 ? -34.5°
